Location: Unspecified
(0.0000°N, 0.0000°E)
Time: 09:21:33
(UTC+00:00)

deb Explorer IX - Pass Details

Date: 14 December 2018
Orbit: 536 x 1116 km, 38.8° (Epoch: 22 March)

Event Time Altitude Azimuth Distance (km) Brightness Sun altitude
Rises 01:51:21 0° 334° (NNW) 3,114 - -53.3°
Reaches altitude 10° 01:53:59 10° 347° (NNW) 2,293 - -52.8°
Maximum altitude 01:58:30 26° 43° (NE) 1,602 - -52.0°
Drops below altitude 10° 02:03:37 10° 98° (E) 2,641 - -51.0°
Exits shadow 02:04:26 - 102° (ESE) 2,892 ? -50.8°
Sets 02:06:52 0° 110° (ESE) 3,688 ? -50.3°
